Overview Statistics Trail Chart Weather Telemetry Raw packets
 

This is the latest recevied weather packets stored in our database for station/object KI4NG. If no packets are shown the sender has not sent any weather packets the latest 10 day(s).

<< 24 25 26 27 28 29 30 >>
Time Temp. Humidity Pressure Rain* Wind** Luminosity Snow
1788456407 33.33° C 57% 1020.3 hPa 0 mm - 752 W/m² -
1788456099 33.89° C 57% 1020.4 hPa 0 mm - 200 W/m² -
1788455798 33.89° C 55% 1020.6 hPa 0 mm - 760 W/m² -
1788455495 33.89° C 57% 1020.6 hPa 0 mm - 752 W/m² -
1788455193 33.89° C 58% 1020.6 hPa 0 mm - 799 W/m² -
1788454889 33.89° C 55% 1020.8 hPa 0 mm - 820 W/m² -
1788454587 32.78° C 57% 1020.8 hPa 0 mm - 776 W/m² -
1788454282 32.22° C 60% 1020.8 hPa 0 mm - 454 W/m² -
1788453976 32.78° C 59% 1020.7 hPa 0 mm - 161 W/m² -
1788453672 32.78° C 61% 1020.8 hPa 0 mm - 695 W/m² -
1788453367 33.33° C 57% 1021 hPa 0 mm - 802 W/m² -
1788453063 33.89° C 57% 1021.2 hPa 0 mm - 822 W/m² -
1788452759 33.89° C 57% 1020.9 hPa 0 mm - 798 W/m² -
1788452455 33.89° C 59% 1021.2 hPa 0 mm - 814 W/m² -
1788452150 33.33° C 59% 1021.1 hPa 0 mm - 776 W/m² -
1788451846 32.78° C 58% 1021.1 hPa 0 mm - 814 W/m² -
1788451545 32.78° C 59% 1021.4 hPa 0 mm - 842 W/m² -
1788451239 32.78° C 59% 1021.3 hPa 0 mm - 790 W/m² -
1788450938 32.22° C 58% 1021.3 hPa 0 mm - 792 W/m² -
1788450634 32.78° C 59% 1021.6 hPa 0 mm - 306 W/m² -
1788450330 32.78° C 60% 1021.3 hPa 0 mm - 688 W/m² -
1788450026 32.78° C 58% 1021.4 hPa 0 mm - 622 W/m² -
1788449721 32.78° C 59% 1021.4 hPa 0 mm - 680 W/m² -
1788449417 31.67° C 63% 1021.2 hPa 0 mm - 678 W/m² -
1788449112 32.22° C 62% 1021.4 hPa 0 mm - 671 W/m² -

* Rain latest hour (hover to see other rain measurements)
** Current wind speed in m/s (hover to see current wind gust speed)